Location: Unspecified
(0.0000°N, 0.0000°E)
Time: 06:54:12
(UTC+00:00)

Hubble Space Telescope - Pass Details

Date: 21 June 2019
Orbit: 536 x 540 km, 28.5° (Epoch: 16 September)

Event Time Altitude Azimuth Distance (km) Brightness Sun altitude
Rises 04:56:15 0° 333° (NNW) 2,659 4.3 -15.0°
Reaches altitude 10° 05:00:10 10° 11° (N) 1,771 3.9 -14.1°
Maximum altitude 05:01:18 11° 27° (NNE) 1,712 4.1 -13.8°
Drops below altitude 10° 05:02:26 10° 43° (NE) 1,772 4.5 -13.6°
Sets 05:06:21 0° 80° (E) 2,665 6.0 -12.7°
